Location: Bun Machan
(52.1403°N, 7.3744°W)
Time: 02:57:10
(UTC+00:00)

USA 215 - Pass Details

Date: 14 July 2020
Orbit: 1102 x 1106 km, 123.0° (Epoch: 31 July)

Event Time Altitude Azimuth Distance (km) Brightness Sun altitude
Rises 03:18:56 0° 86° (E) 3,922 6.8 -8.1°
Reaches altitude 10° 03:21:26 10° 83° (E) 2,964 6.3 -7.8°
Maximum altitude 03:27:51 60° 5° (N) 1,251 3.9 -7.2°
Drops below altitude 10° 03:34:15 10° 288° (WNW) 2,965 5.3 -6.6°
Sets 03:36:46 0° 285° (WNW) 3,923 5.9 -6.3°
